Regional Weather Roundup
Issued by NWS

Home | Current Version | Previous Version | Text Only | Print | Product List | Glossary On
Versions: 1 2 3 4 5 6 7 8 9 10 11 12 13 14 15 16 17 18 19 20 21 22 23 24 25 26 27 28 29 30 31 32 33 34 35 36 37 38 39 40 41 42 43 44 45 46 47 48 49 50
817
ASUS43 KOAX 090102
RWRNE

WEATHER ROUNDUP FOR NEBRASKA
NATIONAL WEATHER SERVICE OMAHA NE
700 PM CST MON FEB 08 2016

NOTES: SATELLITE DATA IS BEING USED TO AUGMENT CLOUD COVER ABOVE
       12000 FEET.
       "FAIR" INDICATES FEW OR NO CLOUDS BELOW 12,000 FEET WITH NO
       SIGNIFICANT WEATHER AND/OR OBSTRUCTIONS TO VISIBILITY.

  * THESE STATIONS DO NOT REPORT WEATHER SUCH AS RAIN...SNOW OR FOG.

NEZ001>004-019>022-054>056-090200-
NEBRASKA PANHANDLE

CITY           SKY/WX    TMP DP  RH WIND       PRES   REMARKS
SCOTTSBLUFF    CLOUDY    38  28  67 NW10      30.30R WCI  31
ALLIANCE       CLOUDY    30  24  78 W9        30.24F WCI  22
CHADRON        CLOUDY    35  23  61 NW3       30.26F
SIDNEY         CLOUDY    36  29  75 NW12      30.27S WCI  28
$$

NEZ057>060-069>072-079>082-090200-
SOUTHWEST NEBRASKA

CITY           SKY/WX    TMP DP  RH WIND       PRES   REMARKS
NORTH PLATTE   CLOUDY    33  21  61 NW13      30.24R WCI  24
IMPERIAL       CLOUDY    30  21  69 NW7       30.27S WCI  23
MCCOOK         CLEAR     31  19  61 W10       30.25F WCI  22
$$

NEZ005>010-023>029-035>040-094-090200-
NORTH CENTRAL NEBRASKA

CITY           SKY/WX    TMP DP  RH WIND       PRES   REMARKS
VALENTINE      CLOUDY    26  17  68 W8        30.22F WCI  18
BROKEN BOW     CLEAR     31  14  49 NW16G22   30.19S WCI  20
ORD            CLEAR     29  17  61 NW9       30.17F WCI  20
$$

NEZ041-046>049-061>064-073>077-083>087-090200-
SOUTH CENTRAL NEBRASKA

CITY           SKY/WX    TMP DP  RH WIND       PRES   REMARKS
GRAND ISLAND   CLOUDY    29  18  63 NW8       30.17F WCI  21
HASTINGS       CLOUDY    30  19  63 NW13      30.17F WCI  20
$$

NEZ011>018-030>034-042>045-090200-
NORTHEAST NEBRASKA

CITY           SKY/WX    TMP DP  RH WIND       PRES   REMARKS
NORFOLK        CLOUDY    32  20  61 NW17G29   30.11S WCI  21
COLUMBUS *     CLOUDY    30  16  55 NW15      30.13F WCI  19
TEKAMAH        PTCLDY    31  18  58 N9        30.10F WCI  23
$$

NEZ050>053-065>068-078-088>093-090200-
SOUTHEAST NEBRASKA

CITY           SKY/WX    TMP DP  RH WIND       PRES   REMARKS
LINCOLN        CLOUDY    33  20  58 N18       30.13F WCI  22
OMAHA EPPLEY   PTCLDY    25  18  74 N9        30.10S WCI  15
FALLS CITY     CLEAR     29  18  63 NW9       30.11S WCI  20
$$

NEZ044-045-051>053-067-090200-
OMAHA AREA

CITY           SKY/WX    TMP DP  RH WIND       PRES   REMARKS
OMAHA EPPLEY   PTCLDY    25  18  74 N9        30.10S WCI  15
OFFUTT AFB     CLEAR     28  18  64 NW9       30.09S WCI  20
$$




USA.gov is the U.S. government's official web portal to all federal, state and local government web resources and services.